Wautoma, WI

12:58 PM CST on January 22, 2017 (GMT -0600)
Wautoma

Weather History for KY50 - October, 2013

Change the Weather History Date:

Thursday, October 24, 2013

  Actual Average (KPCZ) Record (KPCZ)
Temperature  
Mean Temperature 35 °F -  
Max Temperature 43 °F 56 °F 78 °F (1963)
Min Temperature 26 °F 38 °F 19 °F (1981)
Degree Days  
Heating Degree Days 30    
Moisture  
Dew Point 25 °F    
Average Humidity 69    
Maximum Humidity 100    
Minimum Humidity 49    
Precipitation  
Precipitation 0.00 in - - ()
Sea Level Pressure  
Sea Level Pressure 30.16 in    
Wind  
Wind Speed 9 mph (WNW)    
Max Wind Speed 17 mph    
Max Gust Speed 22 mph    
Visibility 10 miles    
Events      
Averages and records for this station are not official NWS values.
T = Trace of Precipitation, MM = Missing Value Source: NWS Daily Summary

Daily Weather History Graph

Daily Weather History Graph

Search for Another Location

Airport or City:

Trip Planner

Search our weather history database for the weather conditions in past years. The results will help you decide how hot, cold, wet, or windy it might be!

Date:

Astronomy

Oct. 24, 2013 Rise Set
Actual Time 7:23 AM CDT 5:58 PM CDT
Civil Twilight 6:54 AM CDT 6:27 PM CDT
Nautical Twilight 6:20 AM CDT 7:01 PM CDT
Astronomical Twilight 5:46 AM CDT 7:35 PM CDT
Moon 10:18 PM CDT (10/24) 12:29 PM CDT (10/24)
Length of Visible Light 11h 33m
Length of Day
10h 34m
Waning Gibbous, 71% of the Moon is Illuminated
Oct 24
Waning Gibbous
Oct 26
Last Quarter
Nov 3
New
Nov 9
First Quarter
Nov 17
Full

Hourly Weather History & Observations

Time (CDT) Temp. Windchill Dew Point Humidity Pressure Visibility Wind Dir Wind Speed Gust Speed Precip Events Conditions
12:56 AM 33.8 °F 26.4 °F 26.6 °F 75% 30.01 in 10.0 mi WNW 9.2 mph - N/A   Overcast
1:56 AM 32.0 °F 24.2 °F 27.1 °F 82% 30.03 in 10.0 mi WNW 9.2 mph - N/A   Overcast
2:56 AM 30.0 °F 23.2 °F 26.1 °F 85% 30.04 in 10.0 mi WNW 6.9 mph - N/A   Clear
3:56 AM 28.0 °F 21.7 °F 25.2 °F 89% 30.05 in 10.0 mi WNW 5.8 mph - N/A   Clear
4:56 AM 31.1 °F 23.1 °F 24.1 °F 75% 30.07 in 10.0 mi WNW 9.2 mph - N/A   Mostly Cloudy
5:56 AM 32.0 °F 24.8 °F 23.0 °F 69% 30.09 in 10.0 mi WNW 8.1 mph - N/A   Overcast
6:56 AM 32.0 °F 24.8 °F 24.1 °F 73% 30.11 in 10.0 mi NW 8.1 mph - N/A   Overcast
7:56 AM 32.9 °F 25.9 °F 25.2 °F 73% 30.12 in 10.0 mi NW 8.1 mph - N/A   Overcast
8:56 AM 34.0 °F 26.6 °F 26.1 °F 73% 30.14 in 10.0 mi WNW 9.2 mph - N/A   Overcast
9:56 AM 34.9 °F 26.6 °F 26.1 °F 70% 30.16 in 10.0 mi WNW 11.5 mph - N/A   Overcast
10:56 AM 36.9 °F 29.6 °F 25.2 °F 63% 30.17 in 10.0 mi NNW 10.4 mph - N/A   Overcast
11:56 AM 38.8 °F 31.2 °F 25.2 °F 58% 30.18 in 10.0 mi NW 12.7 mph 17.3 mph N/A   Mostly Cloudy
12:22 PM 39.2 °F 33.0 °F 24.8 °F 56% 30.17 in 10.0 mi NW 9.2 mph - N/A   Mostly Cloudy
12:56 PM 41.9 °F 33.7 °F 24.1 °F 49% 30.17 in 10.0 mi West 17.3 mph 21.9 mph N/A   Mostly Cloudy
1:56 PM 41.9 °F 34.3 °F 25.2 °F 52% 30.18 in 10.0 mi WNW 15.0 mph - N/A   Mostly Cloudy
2:56 PM 41.9 °F 35.0 °F 25.2 °F 52% 30.18 in 10.0 mi West 12.7 mph - N/A   Overcast
3:56 PM 42.8 °F 37.0 °F 24.8 °F 49% 30.17 in 10.0 mi WNW 10.4 mph - N/A   Overcast
4:56 PM 41.9 °F 35.9 °F 24.1 °F 49% 30.20 in 10.0 mi NW 10.4 mph 21.9 mph 0.00 in   Overcast
5:56 PM 39.9 °F 32.9 °F 24.1 °F 53% 30.22 in 10.0 mi WNW 11.5 mph - N/A   Mostly Cloudy
6:56 PM 37.4 °F 30.8 °F 23.0 °F 56% 30.22 in 10.0 mi WNW 9.2 mph - N/A   Mostly Cloudy
7:56 PM 36.0 °F 29.0 °F 25.2 °F 65% 30.25 in 10.0 mi NW 9.2 mph - N/A   Clear
8:56 PM 32.9 °F 27.5 °F 25.2 °F 73% 30.27 in 10.0 mi WNW 5.8 mph - N/A   Clear
9:56 PM 29.1 °F 24.1 °F 25.2 °F 85% 30.29 in 10.0 mi West 4.6 mph - N/A   Clear
10:56 PM 28.0 °F 24.2 °F 26.1 °F 92% 30.29 in 10.0 mi WNW 3.5 mph - N/A   Clear
11:56 PM 26.1 °F - 26.1 °F 100% 30.30 in 10.0 mi Calm Calm - N/A   Clear